FW3096 Weather Reports


Display with metric or nautical units.
time (UTC)temp
F
wind
direction
speed
MPH
gust
MPH
rain 1hr
in
rain 24hr
in
rain mn
in
humidity
%
barometer
mb
20260507114507 51 217 0.0 0.0 0.00 0.25 0.16 95 1012.8
20260507114008 51 217 0.0 0.0 0.00 0.25 0.16 95 1012.9
20260507113507 50 217 0.0 0.0 0.00 0.25 0.16 95 1012.8
20260507113010 50 217 0.0 0.0 0.00 0.25 0.16 95 1012.8
20260507112507 50 217 0.0 0.0 0.00 0.25 0.16 95 1012.9
20260507111509 50 217 0.0 0.0 0.00 0.25 0.16 95 1012.7
20260507110507 50 217 0.0 0.0 0.00 0.25 0.16 95 1012.6
20260507105507 50 217 0.0 0.0 0.00 0.25 0.16 95 1012.5
20260507104508 50 217 0.0 0.0 0.00 0.25 0.16 95 1012.4
20260507104010 50 217 0.0 0.0 0.00 0.25 0.16 94 1012.3
20260507103507 50 217 0.0 0.0 0.00 0.25 0.16 94 1012.2
20260507103009 50 216 0.0 0.0 0.00 0.25 0.16 94 1012.2
20260507102507 50 217 0.0 0.0 0.00 0.25 0.16 94 1012.2
20260507102008 50 217 0.0 0.0 0.00 0.25 0.16 94 1012.2
20260507101508 50 217 0.0 0.0 0.00 0.25 0.16 94 1012.1
20260507101008 50 217 0.0 0.0 0.00 0.25 0.16 94 1012.1
20260507100010 50 216 0.0 0.0 0.00 0.25 0.16 94 1012.0
20260507095507 50 216 0.0 0.0 0.00 0.25 0.16 94 1011.9
20260507095008 50 216 0.0 0.0 0.00 0.25 0.16 94 1011.8
20260507094508 50 216 0.0 0.0 0.00 0.25 0.16 94 1011.9
20260507094013 50 216 0.0 0.0 0.00 0.25 0.16 94 1011.9
20260507093007 50 216 0.0 0.0 0.00 0.25 0.16 94 1011.8
20260507092507 50 216 0.0 0.0 0.01 0.25 0.16 94 1011.9
20260507092009 50 216 0.0 0.0 0.01 0.25 0.16 94 1011.8
20260507091507 50 216 0.0 0.0 0.01 0.25 0.16 94 1011.7
20260507091009 50 216 0.0 0.0 0.01 0.25 0.16 94 1011.7
20260507090508 50 216 0.0 0.0 0.01 0.25 0.16 94 1011.6
20260507090008 50 216 0.0 0.0 0.01 0.25 0.16 94 1011.4
20260507085507 50 216 0.0 0.0 0.01 0.25 0.16 93 1011.4
20260507085009 50 216 0.0 0.0 0.01 0.25 0.16 93 1011.4
20260507084507 50 216 0.0 0.0 0.01 0.25 0.16 93 1011.6
20260507084008 50 216 0.0 2.0 0.01 0.25 0.16 93 1011.6
20260507083509 50 216 0.0 2.0 0.01 0.25 0.16 93 1011.4
20260507083013 50 227 0.0 2.0 0.01 0.25 0.16 93 1011.4
20260507082507 50 325 0.0 3.0 0.00 0.24 0.15 93 1011.4
20260507082009 50 324 1.0 2.0 0.00 0.24 0.15 93 1011.4
20260507081507 50 324 0.0 2.0 0.00 0.24 0.15 93 1011.4
20260507081008 50 324 0.0 4.0 0.00 0.24 0.15 93 1011.4
20260507080508 50 337 0.0 4.0 0.00 0.24 0.15 93 1011.5
20260507080008 50 281 0.0 2.0 0.00 0.24 0.15 93 1011.7
20260507075507 50 281 0.0 3.0 0.01 0.24 0.15 93 1011.8
20260507075011 50 281 1.0 5.0 0.01 0.24 0.15 93 1011.7
20260507074507 50 328 1.0 5.0 0.01 0.24 0.15 93 1011.6
20260507074008 50 300 2.0 5.0 0.01 0.24 0.15 93 1011.6
20260507073508 51 345 0.0 3.0 0.01 0.24 0.15 93 1011.7
20260507073008 51 267 0.0 4.0 0.01 0.24 0.15 93 1011.5
20260507072506 51 331 0.0 4.0 0.01 0.24 0.15 93 1011.9
20260507072009 51 317 0.0 4.0 0.01 0.24 0.15 93 1012.1
20260507071507 51 296 2.0 4.0 0.01 0.24 0.15 93 1012.1
20260507070508 51 326 2.0 4.0 0.01 0.24 0.15 92 1012.0
20260507070011 51 329 1.0 2.0 0.02 0.24 0.15 92 1012.2
20260507065507 51 292 1.0 9.0 0.01 0.23 0.14 92 1012.4
20260507065008 51 268 1.0 9.0 0.02 0.23 0.14 92 1012.5
20260507064008 51 296 2.0 5.0 0.02 0.23 0.14 92 1012.0
20260507063507 51 300 3.0 9.0 0.03 0.23 0.14 92 1011.8
20260507062507 52 318 1.0 4.0 0.10 0.23 0.14 91 1011.6
20260507062011 52 338 0.0 3.0 0.11 0.23 0.14 92 1011.5
20260507061506 52 292 2.0 5.0 0.12 0.23 0.14 91 1011.7
20260507060508 53 342 1.0 11.0 0.13 0.23 0.14 91 1011.8
20260507060009 53 286 2.0 4.0 0.12 0.22 0.13 91 1011.8
20260507055009 54 305 3.0 9.0 0.11 0.21 0.12 92 1011.8
20260507054507 54 188 1.0 9.0 0.12 0.21 0.12 91 1011.7
20260507054008 54 345 2.0 6.0 0.12 0.21 0.12 91 1011.5
20260507053508 55 309 0.0 8.0 0.11 0.20 0.11 91 1011.5
20260507052507 55 317 3.0 5.0 0.04 0.13 0.04 91 1011.5
20260507051506 56 292 2.0 6.0 0.02 0.11 0.02 90 1011.3
20260507051008 56 342 3.0 6.0 0.01 0.10 0.01 90 1010.8
20260507050508 56 303 0.0 5.0 0.01 0.10 0.01 90 1011.3
20260507050008 56 335 2.0 6.0 0.01 0.10 0.01 90 1011.2
20260507045507 57 301 1.0 6.0 0.01 0.10 0.01 90 1010.9
20260507045009 57 275 2.0 4.0 0.01 0.10 0.01 90 1010.8
20260507044507 57 355 1.0 5.0 0.00 0.09 0.00 90 1010.9
20260507043509 58 331 2.0 8.0 0.00 0.09 0.00 90 1010.5
20260507043007 59 342 2.0 5.0 0.00 0.09 0.00 90 1010.4
20260507042507 59 291 1.0 6.0 0.01 0.09 0.00 90 1010.3
20260507041509 59 323 2.0 8.0 0.01 0.09 0.00 90 1010.8
20260507041009 60 304 1.0 4.0 0.01 0.09 0.00 90 1010.4
20260507040509 60 333 1.0 4.0 0.01 0.09 0.00 90 1010.2
20260507040026 60 355 1.0 5.0 0.01 0.09 0.00 90 1010.4
20260507035509 61 338 2.0 8.0 0.01 0.09 0.09 90 1010.6
20260507035009 61 303 3.0 8.0 0.01 0.09 0.09 90 1010.5
20260507034009 62 310 1.0 4.0 0.01 0.09 0.09 90 1010.4
20260507033508 62 298 1.0 5.0 0.01 0.09 0.09 90 1010.3
20260507032509 62 298 2.0 6.0 0.00 0.08 0.08 89 1010.3
20260507032010 62 306 2.0 6.0 0.00 0.08 0.08 88 1010.4
20260507031009 63 300 2.0 6.0 0.01 0.08 0.08 89 1010.4
20260507030511 63 327 2.0 7.0 0.01 0.08 0.08 89 1009.9
20260507030010 63 303 2.0 4.0 0.01 0.08 0.08 89 1009.9
20260507025509 63 290 1.0 5.0 0.01 0.08 0.08 90 1009.9
20260507024509 64 314 2.0 6.0 0.01 0.08 0.08 90 1010.0
20260507024009 64 290 1.0 8.0 0.01 0.08 0.08 90 1010.1
20260507023510 64 298 3.0 8.0 0.01 0.08 0.08 89 1010.0
20260507023009 65 305 2.0 6.0 0.01 0.08 0.08 89 1010.0
20260507022509 65 267 1.0 7.0 0.01 0.08 0.08 89 1010.0
20260507021509 66 330 4.0 9.0 0.00 0.07 0.07 88 1009.9
20260507021010 66 322 2.0 3.0 0.00 0.07 0.07 88 1009.9
20260507020509 66 215 0.0 0.0 0.00 0.07 0.07 87 1009.7
20260507020012 66 216 0.0 2.0 0.00 0.07 0.07 87 1009.7
20260507015508 66 215 0.0 2.0 0.00 0.07 0.07 87 1009.9
20260507015010 66 215 1.0 2.0 0.00 0.07 0.07 86 1009.9
20260507014508 66 215 0.0 0.0 0.00 0.07 0.07 86 1009.9
20260507014009 66 215 0.0 0.0 0.00 0.07 0.07 86 1009.7
20260507012508 66 215 0.0 2.0 0.00 0.07 0.07 86 1009.7
20260507012011 66 215 0.0 0.0 0.00 0.07 0.07 86 1009.8
20260507011508 66 215 0.0 0.0 0.00 0.07 0.07 85 1009.7
20260507011008 66 215 0.0 0.0 0.00 0.07 0.07 85 1009.6
20260507010509 66 215 0.0 4.0 0.00 0.07 0.07 85 1009.6
20260507010010 66 215 1.0 4.0 0.00 0.07 0.07 85 1009.7
20260507005510 66 149 0.0 2.0 0.00 0.07 0.07 85 1009.7
20260507005008 66 169 0.0 2.0 0.00 0.07 0.07 85 1009.8
20260507004010 66 138 0.0 1.0 0.00 0.07 0.07 84 1009.8
20260507003508 67 142 0.0 2.0 0.00 0.07 0.07 84 1009.6
20260507003009 67 269 0.0 2.0 0.00 0.07 0.07 84 1009.3
20260507002509 67 278 1.0 2.0 0.00 0.07 0.07 83 1009.4
20260507002009 67 296 0.0 4.0 0.00 0.07 0.07 83 1009.3
20260507001508 67 296 2.0 5.0 0.00 0.07 0.07 83 1009.2
20260507000509 67 81 0.0 10.0 0.00 0.07 0.07 83 1009.1
20260507000010 67 218 2.0 10.0 0.00 0.07 0.07 83 1009.1
20260506235510 67 274 0.0 3.0 0.00 0.07 0.07 83 1009.0
20260506234010 67 215 0.0 7.0 0.00 0.07 0.07 83 1009.0
20260506233508 67 186 1.0 7.0 0.00 0.07 0.07 83 1009.2
20260506233009 67 259 0.0 4.0 0.00 0.07 0.07 83 1009.1
20260506232509 67 219 0.0 4.0 0.00 0.07 0.07 83 1009.1
20260506232009 67 199 1.0 3.0 0.00 0.07 0.07 83 1009.0
20260506231508 68 162 0.0 3.0 0.00 0.07 0.07 82 1008.9
20260506231011 68 276 0.0 3.0 0.00 0.07 0.07 82 1008.9
20260506230009 68 198 2.0 5.0 0.00 0.07 0.07 81 1009.0
20260506225009 68 222 2.0 8.0 0.00 0.07 0.07 81 1009.0
20260506224508 68 277 2.0 6.0 0.00 0.07 0.07 81 1008.8
20260506224010 68 90 0.0 5.0 0.00 0.07 0.07 82 1008.7
20260506223508 68 90 1.0 5.0 0.00 0.07 0.07 81 1008.9
20260506223009 68 175 1.0 4.0 0.00 0.07 0.07 81 1008.9
20260506222509 69 101 1.0 3.0 0.00 0.07 0.07 81 1008.9
20260506222009 69 193 0.0 3.0 0.00 0.07 0.07 81 1008.8
20260506221508 68 278 1.0 3.0 0.00 0.07 0.07 81 1008.8
20260506221009 68 207 2.0 6.0 0.00 0.07 0.07 81 1008.6
20260506220508 68 340 0.0 6.0 0.00 0.07 0.07 81 1008.7
20260506215508 68 164 0.0 4.0 0.00 0.07 0.07 81 1008.7
20260506215010 68 139 0.0 3.0 0.00 0.07 0.07 81 1008.8
20260506214508 68 11 1.0 5.0 0.00 0.07 0.07 81 1008.6
20260506214010 68 96 2.0 5.0 0.00 0.07 0.07 81 1008.6
20260506213508 68 209 1.0 6.0 0.00 0.07 0.07 81 1008.5
20260506213009 68 317 3.0 11.0 0.00 0.07 0.07 81 1008.6
20260506212510 68 264 4.0 11.0 0.00 0.07 0.07 81 1008.6
20260506212009 68 91 4.0 8.0 0.00 0.07 0.07 80 1008.5
20260506211508 69 175 4.0 7.0 0.00 0.07 0.07 80 1008.5
20260506210508 69 173 2.0 10.0 0.00 0.07 0.07 80 1008.5
20260506210010 69 157 4.0 10.0 0.00 0.07 0.07 82 1008.5
20260506205008 68 314 3.0 9.0 0.00 0.07 0.07 82 1008.5
20260506204508 68 167 3.0 13.0 0.00 0.07 0.07 83 1008.4
20260506204010 67 304 3.0 8.0 0.00 0.07 0.07 83 1008.4
20260506203508 67 253 5.0 8.0 0.00 0.07 0.07 83 1008.4
20260506202509 67 201 3.0 11.0 0.00 0.07 0.07 84 1008.3
20260506202008 67 183 1.0 11.0 0.00 0.07 0.07 83 1008.3
20260506201010 67 256 1.0 12.0 0.00 0.07 0.07 85 1008.3
20260506200508 66 226 3.0 12.0 0.00 0.07 0.07 85 1008.3
20260506200009 66 267 1.0 5.0 0.00 0.07 0.07 86 1008.4
20260506195510 66 198 0.0 6.0 0.00 0.07 0.07 86 1008.5
20260506195009 65 336 2.0 9.0 0.00 0.07 0.07 86 1008.6
20260506194507 65 250 3.0 9.0 0.00 0.07 0.07 86 1008.7
20260506194009 65 340 3.0 9.0 0.00 0.07 0.07 85 1008.7
20260506193009 65 126 1.0 10.0 0.00 0.07 0.07 86 1008.8
20260506192510 65 149 1.0 7.0 0.00 0.07 0.07 86 1008.8
20260506192009 65 171 2.0 10.0 0.00 0.07 0.07 87 1008.9
20260506191507 64 323 4.0 10.0 0.00 0.07 0.07 87 1009.0
20260506191009 64 232 1.0 10.0 0.00 0.07 0.07 87 1009.0
20260506190508 64 191 3.0 10.0 0.00 0.07 0.07 87 1009.1
20260506190009 64 196 3.0 8.0 0.00 0.07 0.07 87 1009.2
20260506185508 64 225 3.0 10.0 0.00 0.07 0.07 87 1009.2
20260506185010 64 360 2.0 13.0 0.00 0.07 0.07 87 1009.0
20260506184008 64 235 3.0 7.0 0.00 0.07 0.07 88 1009.2
20260506182510 63 155 2.0 10.0 0.00 0.07 0.07 89 1009.4
20260506182010 63 355 4.0 10.0 0.00 0.07 0.07 90 1009.5
20260506181509 63 333 2.0 5.0 0.00 0.07 0.07 90 1009.6
20260506180509 63 273 2.0 9.0 0.00 0.07 0.07 90 1009.4
20260506180011 63 197 1.0 7.0 0.00 0.07 0.07 91 1009.6
20260506175509 62 293 1.0 6.0 0.00 0.07 0.07 91 1009.7
20260506175011 62 288 2.0 7.0 0.00 0.07 0.07 91 1009.7
20260506174508 62 204 4.0 7.0 0.00 0.07 0.07 91 1009.7
20260506173510 62 90 1.0 12.0 0.00 0.07 0.07 91 1009.8
20260506173009 62 175 2.0 12.0 0.00 0.07 0.07 91 1009.7
20260506172008 62 131 1.0 4.0 0.00 0.07 0.07 92 1009.8
20260506171508 62 136 1.0 11.0 0.01 0.07 0.07 92 1009.7
20260506170509 62 233 3.0 9.0 0.02 0.07 0.07 92 1010.0
20260506170010 62 48 4.0 9.0 0.03 0.07 0.07 92 1010.0
20260506165010 62 225 2.0 10.0 0.04 0.07 0.07 93 1010.0
20260506164009 62 271 1.0 8.0 0.05 0.07 0.07 93 1010.0
20260506163010 62 173 0.0 5.0 0.05 0.07 0.07 92 1010.2
20260506162507 62 148 1.0 5.0 0.05 0.07 0.07 92 1010.1
20260506162010 62 117 2.0 5.0 0.06 0.07 0.07 93 1010.2
20260506161508 62 157 1.0 5.0 0.05 0.06 0.06 92 1010.4
20260506161008 62 189 2.0 6.0 0.05 0.05 0.05 92 1010.5
20260506160509 62 160 2.0 9.0 0.05 0.05 0.05 91 1010.7
20260506160011 62 146 3.0 9.0 0.04 0.04 0.04 90 1010.9
20260506155508 62 317 1.0 6.0 0.04 0.04 0.04 89 1011.2
20260506154508 63 46 4.0 10.0 0.03 0.03 0.03 89 1011.3
20260506154009 63 223 1.0 4.0 0.02 0.02 0.02 89 1011.2
20260506153509 63 34 0.0 7.0 0.02 0.02 0.02 87 1011.3
20260506153009 63 215 0.0 7.0 0.02 0.02 0.02 87 1011.3
20260506152508 63 238 3.0 8.0 0.02 0.02 0.02 86 1011.3
20260506152010 63 309 2.0 9.0 0.01 0.01 0.01 85 1011.1
20260506151508 64 233 1.0 9.0 0.01 0.01 0.01 83 1011.0
20260506151008 64 241 4.0 9.0 0.00 0.00 0.00 83 1011.0
20260506150009 64 171 1.0 7.0 0.00 0.00 0.00 81 1010.9
20260506145508 65 202 3.0 8.0 0.00 0.00 0.00 80 1011.0
20260506145010 65 283 1.0 8.0 0.00 0.00 0.00 80 1011.1
20260506144009 66 187 4.0 11.0 0.00 0.00 0.00 79 1011.0
20260506143508 66 203 3.0 9.0 0.00 0.00 0.00 78 1010.9
20260506142508 66 128 2.0 8.0 0.00 0.00 0.00 77 1011.2
20260506142008 67 5 4.0 8.0 0.00 0.00 0.00 75 1011.1
20260506141509 67 218 4.0 7.0 0.00 0.00 0.00 74 1011.2
20260506141008 67 315 2.0 10.0 0.00 0.00 0.00 73 1011.1
20260506140508 67 70 3.0 12.0 0.00 0.00 0.00 73 1011.1
20260506140008 68 265 2.0 12.0 0.00 0.00 0.00 72 1011.0
20260506135507 68 278 5.0 10.0 0.00 0.00 0.00 72 1011.0
20260506135009 69 260 4.0 9.0 0.00 0.00 0.00 72 1010.9
20260506133508 67 181 4.0 10.0 0.00 0.00 0.00 75 1010.9
20260506133008 66 271 2.0 7.0 0.00 0.00 0.00 76 1011.0
20260506132506 66 130 3.0 9.0 0.00 0.00 0.00 75 1011.1
20260506132009 66 336 1.0 9.0 0.00 0.00 0.00 76 1011.1
20260506131507 66 186 3.0 12.0 0.00 0.00 0.00 76 1011.0
20260506131007 66 167 4.0 12.0 0.00 0.00 0.00 76 1011.1
20260506125010 66 227 2.0 13.0 0.00 0.00 0.00 77 1011.4
20260506124507 66 355 4.0 13.0 0.00 0.00 0.00 77 1011.4
20260506124009 66 142 4.0 8.0 0.00 0.00 0.00 77 1011.3
20260506122011 66 13 2.0 12.0 0.00 0.00 0.00 79 1011.3
20260506121008 66 168 4.0 10.0 0.00 0.00 0.00 79 1011.1
20260506120508 66 169 3.0 6.0 0.00 0.00 0.00 79 1011.1
20260506120010 65 85 3.0 8.0 0.00 0.00 0.00 81 1011.0
20260506115507 64 192 3.0 8.0 0.00 0.00 0.00 82 1011.1